This is the latest recevied weather packets stored in our database for station/object KK6LZB. If no packets are shown the sender has not sent any weather packets the latest 1 day(s).
| Time | Temp. | Humidity | Pressure | Rain* | Wind** | Luminosity | Snow |
|---|---|---|---|---|---|---|---|
| 1777998255 | 17.78° C | 74% | 1016.6 hPa | 0 mm | 0.45 m/s, 224° | 281 W/m² | - |
| 1777997952 | 16.67° C | 76% | 1016.2 hPa | 0 mm | 0.45 m/s, 308° | 405 W/m² | - |
| 1777997649 | 16.11° C | 79% | 1016.5 hPa | 0 mm | 0.45 m/s, 159° | 352 W/m² | - |
| 1777997346 | 16.11° C | 79% | 1016.4 hPa | 0 mm | 0.45 m/s, 332° | 187 W/m² | - |
| 1777997044 | 16.11° C | 80% | 1016.5 hPa | 0 mm | 0.45 m/s, 344° | 155 W/m² | - |
| 1777996741 | 15.56° C | 81% | 1016.2 hPa | 0 mm | 0.89 m/s, 248° | 156 W/m² | - |
| 1777996436 | 15° C | 82% | 1016.5 hPa | 0 mm | 0.89 m/s, 201° | 120 W/m² | - |
| 1777996133 | 15° C | 84% | 1016.4 hPa | 0 mm | 0.89 m/s, 185° | 101 W/m² | - |
| 1777995830 | 15° C | 82% | 1016.2 hPa | 0 mm | 0.89 m/s, 186° | 97 W/m² | - |
| 1777995526 | 15° C | 84% | 1016.5 hPa | 0 mm | 0 m/s | 144 W/m² | - |
| 1777995223 | 15° C | 83% | 1016.5 hPa | 0 mm | 0.89 m/s, 195° | 115 W/m² | - |
| 1777994920 | 15° C | 84% | 1016.3 hPa | 0 mm | 0.45 m/s, 356° | 108 W/m² | - |
| 1777994618 | 14.44° C | 85% | 1016.2 hPa | 0 mm | 0 m/s | 91 W/m² | - |
| 1777994317 | 14.44° C | 85% | 1016.4 hPa | 0 mm | 0 m/s | 80 W/m² | - |
| 1777994014 | 14.44° C | 85% | 1016.2 hPa | 0 mm | 0 m/s | 77 W/m² | - |
| 1777993712 | 14.44° C | 86% | 1016.2 hPa | 0 mm | 0 m/s | 78 W/m² | - |
| 1777993409 | 14.44° C | 87% | 1016.4 hPa | 0 mm | 0 m/s | 76 W/m² | - |
| 1777993108 | 13.89° C | 90% | 1016.3 hPa | 0 mm | 0 m/s | 77 W/m² | - |
| 1777992807 | 13.33° C | 92% | 1016.2 hPa | 0 mm | 0 m/s | 61 W/m² | - |
| 1777992504 | 13.33° C | 93% | 1016.1 hPa | 0 mm | 0.45 m/s, 236° | 55 W/m² | - |
| 1777992203 | 12.78° C | 93% | 1016.2 hPa | 0 mm | 0 m/s | 48 W/m² | - |
| 1777991899 | 12.78° C | 93% | 1016.2 hPa | 0 mm | 0 m/s | 41 W/m² | - |
| 1777991597 | 12.78° C | 94% | 1016.1 hPa | 0 mm | 0 m/s | 38 W/m² | - |
| 1777991294 | 12.78° C | 94% | 1016.2 hPa | 0 mm | 0 m/s | 38 W/m² | - |
| 1777990992 | 12.78° C | 94% | 1016 hPa | 0 mm | 0 m/s | 31 W/m² | - |
* Rain latest hour (hover to see other rain measurements)
** Current wind speed in m/s (hover to see current wind gust speed)